STARLINK-4593, 53633

Orbit data source: Space-Track

STARLINK-4593, 53633 is a payload satellite owned by SpaceX/Seattle (US) in LEO that was launched on Sun, 28 Aug 2022 UTC via an FALCON 9 launch vehicle from the Air Force Eastern Test Range (AFETR). Payload-class satellites include a variety of spacecraft equipped with specific instruments for various scientific and technological missions. These include communications satellites like Starlink; space stations such as the ISS; scientific satellites like the Hubble; Earth observation satellites from companies like Planet Labs, Umbra, and HawkEye 360; GPS; miniature CubeSats for education and research; and military/defense satellites.

Loading next visibility...
Identifier
53633, 2022-104AX
Orbit
LEO
Country
Flag of USUS
Related business
Manufacturer
SpaceX/Seattle
Mission
Operational Commercial Communications
Bus & Motor
STARLINK, Unknown motor
Mass
300 kg wet, ~290 kg dry
Launch date (UTC)
2022-08-28 (3 years ago)
Launch vehicle
FALCON 9
Launch site
Air Force Eastern Test Range (AFETR)
Object type
Payload
Rocket body
Debris
Shape & HBR
Box + 1 Pan, 10.1 m
Radar Cross Section
13.562 m², Large (>1 m²)

Expand to show TLE details & history
Last TLE update: 1 day ago

TLE from 1 day ago
0 STARLINK-4593
1 53633U 22104AX  25286.69439570 -.00000636  00000-0 -21920-4 0  9990
2 53633  53.2162 164.0317 0000789  75.6116 284.4964 15.08836264173701
Epoch: 2025-10-13T16:39Z
TLE epoch observation values (Epoch: 2025-10-13T16:39:55.788Z)
Latitude
Longitude
-108.44425°
Altitude
540.516 km
Speed
7.593 km/s
True Right ascension
10h 56m 07s
True Declination
0° 00' 00"
Sunlit
Object was in daylight at epoch
Visualization orbit readout
Latitude
Unknown
Longitude
Unknown
Altitude
Unknown
Speed
Unknown
Apparent Right ascension
Unknown
Apparent Declination
Unknown
Sunlit
N/A
Visualization observer readout
Local Sidereal Time
13:50:13
Azimuth
Unknown
Elevation
Unknown
Doppler factor
Unknown
Orbital elements
Apogee altitude
540.546 km
Perigee altitude
539.454 km
Semi-major axis
6,918.137 km
Eccentricity
0.00008
Inclination
53.2162°
RAAN
164.0317°
Arg. of periapsis
75.6116°
True anomaly
284.48765°
Mean anomaly
284.4964°
Eccentric anomaly
284.49202°
Mean motion
3.77189 °/min
Orbital period
95.44 mins
BSTAR
-0.00002192
Loading maneuver chart data...
Computing Atmospheric mass density...
Loading historical data...
Loading historical data...
Loading historical data...
Loading historical data...
Loading historical data...
Loading historical data...
Loading historical data...

Documentation

Showing up to 5 results
|